Regional Weather Roundup
Issued by NWS

Home | Current Version | Previous Version | Graphics & Text | Print | Product List | Glossary On
Versions: 1 2 3 4 5 6 7 8 9 10 11 12 13 14 15 16 17 18 19 20 21 22 23 24 25 26 27 28 29 30 31 32 33 34 35 36 37 38 39 40 41 42 43 44 45 46 47 48 49 50
000
ASUS43 KLMK 300310
RWRKY
KENTUCKY REGIONAL WEATHER ROUNDUP
NATIONAL WEATHER SERVICE LOUISVILLE KY
1100 PM EDT FRI MAY 29 2015

NOTE "FAIR" INDICATES FEW OR NO CLOUDS BELOW 12,000 FEET
WITH NO SIGNIFICANT WEATHER AND/OR OBSTRUCTIONS TO VISIBILITY.

KYZ001>023-026-027-061>063-070>075-300400-
WESTERN AND SOUTH CENTRAL KENTUCKY

CITY           SKY/WX    TMP DP  RH WIND       PRES   REMARKS
PADUCAH        PTCLDY    75  68  78 SE5       30.03R
HENDERSON      CLEAR     75  66  73 SE3       30.04R
OWENSBORO      CLEAR     74  69  84 SE7       30.07R
HOPKINSVILLE   CLEAR     75  68  79 SE5       30.07R
BOWLING GREEN  MOCLDY    73  66  78 S6        30.09S
GLASGOW        PTCLDY    71  65  81 CALM      30.11S
$$

KYZ024-025-028>034-038-045-046-053-300400-
NORTH CENTRAL KENTUCKY

CITY           SKY/WX    TMP DP  RH WIND       PRES   REMARKS
LOUISVILLE/SDF PTCLDY    75  67  76 S8        30.08R
LOUISVILLE/LOU MOCLDY    75  67  76 S3        30.09R
FORT KNOX      CLEAR     71  67  87 S8        30.07S
$$

KYZ035>037-039>044-047>052-055>060-089>105-300400-
NORTHEAST KENTUCKY

CITY           SKY/WX    TMP DP  RH WIND       PRES   REMARKS
LEXINGTON      MOCLDY    73  65  75 S7        30.13R
COVINGTON      MOCLDY    72  67  84 S6        30.09R
FRANKFORT      CLOUDY    75  65  70 S5        30.10R
$$

KYZ054-064>069-076>088-106>120-300400-
SOUTHEAST KENTUCKY

CITY           SKY/WX    TMP DP  RH WIND       PRES   REMARKS
JACKSON        CLEAR     71  62  73 S3        30.17R
LONDON         MOCLDY    69  64  84 CALM      30.16R
SOMERSET       PTCLDY    68  68 100 CALM      30.16R
MIDDLESBORO    CLOUDY    68  65  90 NW3       30.19R
MONTICELLO     PTCLDY    71  69  93 S3        30.17R
$$



USA.gov is the U.S. government's official web portal to all federal, state and local government web resources and services.